Weather History for Ann Arbor, MI

Change the Weather History Date:

Sunday, October 6, 2013

  Actual Average Record
Temperature  
Mean Temperature 62 °F -  
Max Temperature 71 °F 63 °F 87 °F (2007)
Min Temperature 55 °F 36 °F 26 °F (2003)
Degree Days  
Heating Degree Days 2    
Growing Degree Days 12 (Base 50)    
Moisture  
Dew Point 62 °F    
Average Humidity 91    
Maximum Humidity 96    
Minimum Humidity 78    
Precipitation  
Precipitation 0.23 in - - ()
Sea Level Pressure  
Sea Level Pressure 29.75 in    
Wind  
Wind Speed 8 mph (SW)    
Max Wind Speed 28 mph    
Max Gust Speed 37 mph    
Visibility 9 miles    
Events Rain    
Averages and records for this station are not official NWS values.
T = Trace of Precipitation, MM = Missing Value Source: NWS Daily Summary

Daily Weather History Graph

Daily Weather History Graph

Search for Another Location

Airport:

Trip Planner

Search our weather history database for the weather conditions in past years. The results will help you decide how hot, cold, wet, or windy it might be!

Date:

Astronomy

Oct. 06, 2013 Rise Set
Actual Time 7:37 AM EDT 7:07 PM EDT
Civil Twilight 7:09 AM EDT 7:35 PM EDT
Nautical Twilight 6:37 AM EDT 8:07 PM EDT
Astronomical Twilight 6:04 AM EDT 8:40 PM EDT
Moon 9:23 AM EDT (10/6) 8:03 PM EDT (10/6)
Length of Visible Light 12h 25m
Length of Day
11h 29m
Waxing Crescent, 3% of the Moon is Illuminated
Oct 6
Waxing Crescent
Oct 11
First Quarter
Oct 18
Full
Oct 26
Last Quarter
Nov 3
New

Hourly Weather History & Observations

Time (EDT) Temp. Dew Point Humidity Pressure Visibility Wind Dir Wind Speed Gust Speed Precip Events Conditions
12:05 AM 69.8 °F 68.0 °F 94% 29.87 in 4.0 mi Variable 4.6 mph - N/A   Overcast
12:53 AM 69.1 °F 68.0 °F 96% 29.85 in 5.0 mi SSW 4.6 mph - N/A   Overcast
1:06 AM 69.8 °F 68.0 °F 94% 29.85 in 5.0 mi SSE 5.8 mph - N/A   Overcast
1:51 AM 69.8 °F 68.0 °F 94% 29.85 in 6.0 mi South 6.9 mph - N/A   Overcast
1:53 AM 69.1 °F 68.0 °F 96% 29.84 in 6.0 mi South 4.6 mph - N/A   Overcast
2:53 AM 69.1 °F 66.9 °F 93% 29.83 in 6.0 mi SSW 8.1 mph - N/A   Overcast
3:53 AM 69.1 °F 66.9 °F 93% 29.83 in 8.0 mi SSW 9.2 mph - N/A   Overcast
4:53 AM 68.0 °F 66.0 °F 93% 29.81 in 9.0 mi SSW 8.1 mph - N/A   Overcast
5:47 AM 68.0 °F 64.4 °F 88% 29.81 in 10.0 mi SSW 8.1 mph - 0.00 in Rain Light Rain
5:53 AM 68.0 °F 64.9 °F 90% 29.79 in 10.0 mi South 6.9 mph - 0.00 in Rain Light Rain
6:53 AM 66.9 °F 64.9 °F 93% 29.78 in 10.0 mi South 11.5 mph - 0.03 in Rain Light Rain
7:25 AM 66.2 °F 64.4 °F 94% 29.81 in 10.0 mi WSW 9.2 mph - 0.00 in   Mostly Cloudy
7:34 AM 66.2 °F 64.4 °F 94% 29.81 in 10.0 mi WSW 5.8 mph - 0.00 in Rain Light Rain
7:53 AM 66.0 °F 64.9 °F 96% 29.79 in 10.0 mi SSW 4.6 mph - 0.00 in   Overcast
8:53 AM 66.9 °F 64.9 °F 93% 29.79 in 10.0 mi South 8.1 mph - N/A   Overcast
9:04 AM 66.2 °F 64.4 °F 94% 29.80 in 10.0 mi SSW 9.2 mph - N/A   Overcast
9:11 AM 66.2 °F 64.4 °F 94% 29.80 in 10.0 mi South 10.4 mph - N/A   Overcast
9:53 AM 66.9 °F 64.0 °F 90% 29.75 in 10.0 mi South 10.4 mph - 0.00 in   Scattered Clouds
10:53 AM 66.9 °F 64.9 °F 93% 29.75 in 10.0 mi SSW 5.8 mph - 0.01 in Rain Light Rain
11:12 AM 66.2 °F 64.4 °F 94% 29.77 in 10.0 mi SSW 8.1 mph - 0.00 in Rain Light Rain
11:20 AM 66.2 °F 64.4 °F 94% 29.77 in 10.0 mi SSW 6.9 mph - 0.00 in Rain Light Rain
11:46 AM 68.0 °F 64.4 °F 88% 29.77 in 10.0 mi SSW 9.2 mph - 0.00 in   Overcast
11:53 AM 68.0 °F 64.0 °F 87% 29.76 in 10.0 mi SSW 8.1 mph - 0.00 in Rain Light Rain
12:37 PM 68.0 °F 64.4 °F 88% 29.76 in 10.0 mi SSW 12.7 mph 19.6 mph 0.01 in   Overcast
12:53 PM 68.0 °F 64.9 °F 90% 29.75 in 10.0 mi SSW 10.4 mph 21.9 mph 0.01 in   Overcast
1:16 PM 68.0 °F 64.4 °F 88% 29.75 in 10.0 mi SSW 11.5 mph 18.4 mph 0.00 in Rain Light Rain
1:43 PM 68.0 °F 64.4 °F 88% 29.73 in 10.0 mi SSW 10.4 mph 17.3 mph 0.00 in   Overcast
1:53 PM 68.0 °F 64.0 °F 87% 29.72 in 10.0 mi SSW 9.2 mph - 0.00 in Rain Light Rain
2:53 PM 70.0 °F 64.0 °F 81% 29.68 in 10.0 mi South 8.1 mph - 0.00 in   Overcast
3:53 PM 70.0 °F 63.0 °F 78% 29.66 in 10.0 mi South 11.5 mph 16.1 mph N/A   Overcast
4:53 PM 69.1 °F 64.9 °F 87% 29.63 in 10.0 mi SSE 5.8 mph - 0.01 in   Overcast
5:11 PM 64.4 °F 60.8 °F 88% 29.67 in 2.5 mi West 27.6 mph 36.8 mph 0.03 in Rain Rain
5:17 PM 60.8 °F 57.2 °F 88% 29.67 in 1.2 mi WNW 20.7 mph 36.8 mph 0.08 in Rain Rain
5:23 PM 60.8 °F 57.2 °F 88% 29.67 in 1.2 mi WNW 13.8 mph 29.9 mph 0.12 in Rain Heavy Rain
5:31 PM 60.8 °F 57.2 °F 88% 29.67 in 2.0 mi NW 10.4 mph 20.7 mph 0.15 in Rain Rain
5:40 PM 60.8 °F 57.2 °F 88% 29.67 in 10.0 mi WNW 5.8 mph - 0.15 in Rain Light Rain
5:53 PM 60.1 °F 57.9 °F 93% 29.66 in 10.0 mi WNW 5.8 mph - 0.15 in Rain Light Rain
6:38 PM 60.8 °F 57.2 °F 88% 29.68 in 10.0 mi WNW 3.5 mph - 0.01 in   Overcast
6:53 PM 60.1 °F 57.0 °F 90% 29.68 in 10.0 mi West 4.6 mph - 0.01 in   Overcast
7:10 PM 59.0 °F 57.2 °F 94% 29.70 in 10.0 mi West 6.9 mph - N/A   Overcast
7:48 PM 59.0 °F 55.4 °F 88% 29.73 in 10.0 mi West 9.2 mph - N/A   Overcast
7:53 PM 59.0 °F 55.9 °F 90% 29.72 in 10.0 mi West 8.1 mph - 0.00 in Rain Light Rain
8:00 PM 59.0 °F 55.4 °F 88% 29.72 in 10.0 mi West 9.2 mph - 0.00 in Rain Light Rain
8:11 PM 57.2 °F 55.4 °F 94% 29.73 in 10.0 mi West 10.4 mph - 0.00 in   Overcast
8:53 PM 57.9 °F 55.9 °F 93% 29.71 in 10.0 mi West 6.9 mph - 0.01 in Rain Light Rain
9:35 PM 57.2 °F 55.4 °F 94% 29.73 in 10.0 mi West 8.1 mph - 0.00 in   Mostly Cloudy
9:53 PM 57.0 °F 54.0 °F 89% 29.72 in 10.0 mi WNW 5.8 mph - 0.00 in   Mostly Cloudy
10:53 PM 55.9 °F 54.0 °F 93% 29.73 in 10.0 mi Calm Calm - N/A   Clear
11:39 PM 55.4 °F 53.6 °F 94% 29.73 in 10.0 mi SW 4.6 mph - N/A   Scattered Clouds
11:53 PM 55.0 °F 54.0 °F 96% 29.72 in 10.0 mi SW 4.6 mph - N/A   Partly Cloudy